[[{"header":{"parameterUnit":"m.s-1","parameterCategory":1,"la1":30.2991,"la2":30.254,"lo1":-89.0895,"lo2":-89.0444,"dy":0.0017,"dx":0.0017,"nx":28,"ny":28,"refTime":"2025-07-26T03:00:00:Z","depth":0,"parameterNumber":2,"parameterNumberName":"U-component_of_WINDS"},"data":[0,0,0,0,0,0,0,0,0,0,0,0,0,0,0,0,0,0,0,0,0,0,0,0,0,0,0,0,0,0,0,0,0,0,0,0,0,0,0,0,0,0,0,0,0,0,0,0,0,0,0,0,0,0,0,0,0,0,0.8386,0.8385,0,0.8367,0.8367,0.8366,0.8318,0.8317,0.8315,0.8315,0.8296,0.8297,0.8297,0,0,0,0,0,0,0,0,0,0,0,0,0,0.838,0.8381,0.8386,0.8385,0.8385,0.8367,0.8367,0.8366,0.8318,0.8316,0.8315,0.8314,0.8296,0.8297,0.8297,0,0,0,0,0,0,0,0,0,0,0,0,0,0.8374,0.8381,0.8386,0.8359,0.8356,0.8367,0.8367,0.8366,0.8318,0.8316,0.8315,0.8313,0.8296,0.8297,0.8298,0.8334,0,0,0.83,0.83,0,0,0,0,0,0,0,0,0.8375,0.8375,0.8363,0.8361,0.8358,0.8343,0.8358,0.8355,0.8318,0.8333,0.8314,0.8313,0.8313,0.8313,0.8312,0.8333,0.8332,0.83,0.83,0.8301,0.8301,0,0,0,0,0,0,0,0.8375,0.8375,0.8378,0.8363,0.836,0.8348,0.8345,0.8357,0.8332,0.8331,0.8328,0.8326,0.8312,0.8312,0.8312,0.8332,0.83,0.8301,0.8301,0.8301,0.838,0.8381,0,0,0,0,0,0,0.8379,0.8376,0.8379,0.8378,0.8362,0.8349,0.8346,0.8349,0.8332,0.8327,0.8327,0.8324,0.8311,0.8311,0.8311,0.835,0.8301,0.8301,0.8302,0.8378,0.838,0.8382,0,0,0,0,0,0,0.8379,0.838,0.838,0.8376,0.8375,0.8351,0.8355,0.835,0.835,0.8329,0.8324,0.8332,0.831,0.831,0.8328,0.8349,0.8302,0.8302,0.8376,0.8379,0.8381,0.8431,0,0,0,0,0,0,0.838,0.838,0.8393,0.8376,0.8375,0.8397,0.8356,0.835,0.8351,0.8346,0.8332,0.8328,0.8309,0.8327,0.8329,0.8349,0.8303,0.8374,0.8377,0.838,0.8427,0.8435,0.8441,0,0,0,0,0,0.838,0.8409,0.8394,0.8395,0.8391,0.8398,0.8397,0.8374,0.8353,0.8366,0.8353,0.8329,0.8347,0.8329,0.8331,0.8352,0.8372,0.8376,0.838,0.8424,0.8433,0.8441,0,0,0,0,0,0,0.8429,0.8406,0.839,0.8414,0.8408,0.839,0.8405,0.8385,0.8385,0.838,0.8352,0.8349,0.8371,0.8364,0.8344,0.8386,0.8356,0.836,0.8389,0.8398,0.8405,0.8405,0.8304,0,0,0,0,0,0.8443,0.845,0.843,0.8454,0.8451,0.8429,0.8431,0.8414,0.8407,0.8404,0.8392,0.8386,0.8391,0.8394,0.8397,0.8427,0.8422,0.8442,0.8449,0.8455,0.8458,0.8472,0.8481,0.8394,0.8394,0.8394,0,0,0.8472,0.846,0.8466,0.8463,0.8457,0.8465,0.8427,0.8438,0.8443,0.8406,0.8421,0.8413,0.8405,0.8428,0.8438,0.8423,0.8482,0.846,0.8465,0.8465,0.8477,0.8485,0.8493,0.8396,0.8396,0.8395,0,0,0.8527,0.852,0.8538,0.8532,0.8522,0.8507,0.8512,0.8497,0.8489,0.8504,0.8476,0.8483,0.8492,0.8487,0.8485,0.854,0.8518,0.8542,0.8578,0.8592,0.8599,0.8605,0.8623,0.863,0.8546,0.8546,0.8546,0,0.8563,0.8574,0.855,0.8562,0.8561,0.8528,0.8546,0.8542,0.8534,0.8534,0.8517,0.8527,0.8519,0.8541,0.8554,0.8555,0.8559,0.8543,0.86,0.8606,0.8611,0.8628,0.8635,0.8549,0.8549,0.8548,0.8548,0,0.8619,0.8627,0.8643,0.8635,0.8637,0.8652,0.863,0.8635,0.8618,0.8605,0.8621,0.8611,0.8611,0.8616,0.86,0.8635,0.8625,0.8605,0.8574,0.8622,0.8637,0.8644,0.8553,0.8552,0.8551,0.8551,0,0,0.8703,0.8682,0.8688,0.8684,0.8672,0.8678,0.8692,0.8691,0.8695,0.8692,0.8702,0.8711,0.8692,0.869,0.8674,0.8686,0.8729,0.8664,0.8663,0.8675,0.8766,0.878,0.8788,0.8715,0.8716,0.8717,0.8766,0,0.8754,0.8775,0.8754,0.878,0.8786,0.8756,0.8768,0.8762,0.8751,0.8755,0.8743,0.8749,0.8724,0.8722,0.8734,0.8721,0.8746,0.8718,0.8723,0.8724,0.8724,0.8796,0.881,0.8857,0.8772,0.8773,0.8774,0,0.8815,0.8813,0.884,0.8825,0.8827,0.8838,0.8836,0.8841,0.8834,0.8825,0.8824,0.8804,0.8817,0.8789,0.8806,0.8787,0.8788,0.8783,0.8784,0.8782,0.875,0.8794,0.8871,0.8877,0.8783,0.8782,0.8782,0,0.8871,0.8876,0.8892,0.889,0.8874,0.8883,0.8877,0.8868,0.8869,0.8868,0.8868,0.8869,0.8869,0.887,0.885,0.8832,0.887,0.884,0.8862,0.8862,0.8869,0.8868,0.8946,0.8874,0.8874,0.8874,0.8874,0,0.8928,0.8945,0.8917,0.8927,0.8945,0.8921,0.894,0.8931,0.8924,0.8931,0.8906,0.8914,0.8889,0.8894,0.8879,0.8895,0.8896,0.8888,0.8884,0.8889,0.889,0.8888,0.8884,0.8876,0.8875,0.8875,0.8875,0,0.8993,0.8975,0.899,0.8974,0.8971,0.8985,0.8971,0.8979,0.8967,0.8977,0.8978,0.8959,0.8964,0.8945,0.8948,0.8938,0.8961,0.8952,0.8963,0.8959,0.8981,0.8979,0.9058,0.9067,0.8992,0.8992,0.8993,0,0.9029,0.9042,0.9027,0.903,0.9025,0.9031,0.9031,0.9009,0.9011,0.9005,0.9014,0.9017,0.9017,0.9027,0.9013,0.9015,0.9005,0.9033,0.9005,0.901,0.9003,0.9001,0.9002,0.9038,0.9039,0.9039,0.904,0,0.9096,0.9086,0.9088,0.9087,0.9089,0.9088,0.9084,0.9089,0.9065,0.9069,0.9073,0.9074,0.9076,0.9079,0.9078,0.9072,0.9052,0.905,0.9054,0.9059,0.9064,0.9059,0.8976,0.9047,0.9046,0.9046,0.9045,0.9045,0.9146,0.9155,0.9146,0.9149,0.9144,0.9142,0.9149,0.9138,0.9141,0.914,0.9128,0.9135,0.9128,0.9124,0.912,0.9125,0.9112,0.912,0.9121,0.9123,0.9126,0.9065,0.9125,0.9125,0.9125,0.9125,0.9125,0,0.9209,0.9202,0.9205,0.9201,0.9204,0.9185,0.9181,0.9184,0.9191,0.9186,0.9187,0.9192,0.9196,0.9183,0.9184,0.9191,0.9182,0.9191,0.919,0.9188,0.9138,0.9133,0.9199,0.9199,0.9199,0.9199,0.9199,0.9199,0.9241,0.9255,0.9245,0.9257,0.925,0.9256,0.9255,0.9253,0.9249,0.9255,0.9258,0.9249,0.9241,0.9242,0.9244,0.924,0.9241,0.9254,0.9247,0.9199,0.9192,0.9185,0.918,0.9255,0.9255,0.9296,0.9297,0.9297]},{"header":{"parameterUnit":"m.s-1","parameterCategory":1,"la1":30.2991,"la2":30.254,"lo1":-89.0895,"lo2":-89.0444,"dy":0.0017,"dx":0.0017,"nx":28,"ny":28,"refTime":"2025-07-26T03:00:00:Z","depth":0,"parameterNumber":3,"parameterNumberName":"V-component_of_WINDS"},"data":[0,0,0,0,0,0,0,0,0,0,0,0,0,0,0,0,0,0,0,0,0,0,0,0,0,0,0,0,0,0,0,0,0,0,0,0,0,0,0,0,0,0,0,0,0,0,0,0,0,0,0,0,0,0,0,0,0,0,0.8805,0.8805,0,0.8788,0.8788,0.8788,0.8727,0.8725,0.8724,0.8723,0.8705,0.8706,0.8707,0,0,0,0,0,0,0,0,0,0,0,0,0,0.8784,0.8785,0.8805,0.8805,0.8805,0.8788,0.8788,0.8788,0.8727,0.8725,0.8724,0.8722,0.8705,0.8706,0.8707,0,0,0,0,0,0,0,0,0,0,0,0,0,0.8783,0.8785,0.8805,0.8772,0.8769,0.8788,0.8788,0.8787,0.8727,0.8725,0.8723,0.8721,0.8705,0.8706,0.8707,0.8756,0,0,0.8711,0.8712,0,0,0,0,0,0,0,0,0.8783,0.8784,0.8777,0.8775,0.8771,0.8757,0.8774,0.8777,0.8728,0.8743,0.8723,0.872,0.8724,0.8724,0.8725,0.8756,0.8755,0.8711,0.8712,0.8712,0.8713,0,0,0,0,0,0,0,0.8783,0.8784,0.8798,0.8777,0.8774,0.8758,0.8756,0.8774,0.8746,0.8742,0.8737,0.8736,0.8722,0.8724,0.8724,0.8755,0.8711,0.8712,0.8713,0.8713,0.8822,0.8824,0,0,0,0,0,0,0.8788,0.8785,0.8799,0.8798,0.8772,0.876,0.8758,0.8764,0.8745,0.874,0.8738,0.8733,0.8723,0.8723,0.8724,0.8778,0.8712,0.8714,0.8714,0.882,0.8823,0.8825,0,0,0,0,0,0,0.8788,0.879,0.8799,0.879,0.879,0.8763,0.877,0.8765,0.8766,0.8742,0.8737,0.8745,0.8721,0.8722,0.8748,0.8777,0.8714,0.8715,0.8818,0.8821,0.8824,0.889,0,0,0,0,0,0,0.8788,0.879,0.8809,0.8791,0.8791,0.8825,0.8772,0.8766,0.8769,0.8763,0.8748,0.8743,0.872,0.8747,0.8749,0.8778,0.8716,0.8815,0.8819,0.8823,0.8885,0.8895,0.8904,0,0,0,0,0,0.8787,0.8829,0.881,0.8812,0.8814,0.8827,0.8827,0.8799,0.8771,0.8789,0.8774,0.8744,0.8774,0.875,0.8752,0.8782,0.8813,0.8818,0.8823,0.8881,0.8893,0.8903,0,0,0,0,0,0,0.8851,0.8826,0.8805,0.8842,0.8837,0.8816,0.8839,0.8813,0.8816,0.881,0.8775,0.8772,0.8803,0.8795,0.8769,0.8827,0.8788,0.8794,0.8832,0.8843,0.8852,0.8853,0.8717,0,0,0,0,0,0.887,0.8883,0.886,0.8894,0.8893,0.8866,0.8871,0.885,0.8843,0.8841,0.8827,0.8822,0.883,0.8836,0.8842,0.8884,0.8879,0.8905,0.8914,0.8922,0.8927,0.8947,0.8958,0.8841,0.8841,0.8841,0,0,0.8908,0.8896,0.8906,0.8907,0.8901,0.8914,0.8865,0.8882,0.8892,0.8844,0.8867,0.8857,0.8849,0.8883,0.8897,0.8877,0.8958,0.8928,0.8934,0.8935,0.8953,0.8964,0.8974,0.8844,0.8844,0.8843,0,0,0.8985,0.8977,0.9004,0.8999,0.8989,0.8971,0.8978,0.8961,0.8952,0.8975,0.8939,0.895,0.8965,0.896,0.896,0.9033,0.9005,0.9036,0.9084,0.9104,0.9113,0.9121,0.9146,0.9156,0.9041,0.9042,0.9042,0,0.9033,0.9053,0.9022,0.9041,0.9042,0.8998,0.9025,0.9021,0.9015,0.9016,0.8994,0.901,0.9002,0.9033,0.9051,0.9053,0.9058,0.9037,0.9114,0.9122,0.9129,0.9153,0.9162,0.9045,0.9045,0.9044,0.9044,0,0.9112,0.9126,0.915,0.9143,0.9147,0.917,0.9142,0.915,0.9128,0.9112,0.9136,0.9124,0.9126,0.9132,0.9112,0.916,0.9148,0.9121,0.908,0.9144,0.9166,0.9175,0.9051,0.9049,0.9048,0.9047,0,0,0.9229,0.9205,0.9214,0.921,0.9196,0.9206,0.9227,0.9228,0.9235,0.9232,0.9247,0.926,0.9234,0.9234,0.9212,0.923,0.9287,0.92,0.9199,0.9216,0.9339,0.9359,0.937,0.9269,0.927,0.9272,0.9339,0,0.9301,0.9335,0.9307,0.9345,0.9357,0.9316,0.9333,0.9326,0.9312,0.932,0.9304,0.9313,0.9279,0.9278,0.9293,0.9277,0.9311,0.9272,0.9282,0.9283,0.9285,0.9381,0.9403,0.9468,0.9348,0.9349,0.935,0,0.939,0.9389,0.9429,0.9411,0.9415,0.9431,0.943,0.9438,0.9429,0.9417,0.9416,0.9389,0.9407,0.9369,0.9393,0.9367,0.9369,0.9362,0.9364,0.9363,0.932,0.9383,0.9488,0.9497,0.9363,0.9362,0.9361,0,0.9469,0.9479,0.9504,0.9502,0.9482,0.9494,0.9486,0.9475,0.9477,0.9476,0.9477,0.9479,0.948,0.9481,0.9455,0.9429,0.9482,0.9442,0.9472,0.9473,0.9485,0.9485,0.9591,0.9488,0.9488,0.9488,0.9488,0,0.9552,0.9578,0.9539,0.9554,0.9581,0.9549,0.9576,0.9564,0.9555,0.9566,0.9531,0.9542,0.9507,0.9515,0.9495,0.9518,0.9519,0.9509,0.9503,0.9512,0.9513,0.9513,0.9507,0.9491,0.949,0.949,0.9489,0,0.9646,0.9621,0.9645,0.9623,0.9619,0.9639,0.9621,0.9634,0.9617,0.9632,0.9633,0.9607,0.9614,0.9588,0.9591,0.9578,0.9611,0.9598,0.9614,0.9609,0.9641,0.9638,0.9751,0.9763,0.9654,0.9655,0.9656,0,0.97,0.9718,0.9699,0.9703,0.9697,0.9706,0.9708,0.9677,0.968,0.9671,0.9685,0.9689,0.969,0.9704,0.9685,0.9687,0.9673,0.9712,0.9673,0.9681,0.9673,0.9671,0.9673,0.972,0.9722,0.9723,0.9724,0,0.9798,0.9784,0.9788,0.9788,0.9791,0.979,0.9785,0.9792,0.9758,0.9764,0.977,0.9771,0.9774,0.9779,0.9776,0.9768,0.974,0.9736,0.9743,0.9752,0.976,0.9755,0.9635,0.9734,0.9733,0.9732,0.9731,0.9731,0.9872,0.9886,0.9874,0.988,0.9873,0.987,0.988,0.9864,0.9869,0.9868,0.985,0.986,0.9849,0.9843,0.9838,0.9845,0.9827,0.9837,0.984,0.9843,0.9848,0.9759,0.9845,0.9844,0.9844,0.9844,0.9844,0,0.9968,0.9957,0.9963,0.9958,0.9962,0.9935,0.9929,0.9934,0.9943,0.9935,0.9937,0.9945,0.9949,0.9929,0.993,0.994,0.9927,0.9941,0.994,0.9938,0.9865,0.9858,0.9951,0.9951,0.9951,0.9951,0.9951,0.9951,1.0018,1.0039,1.0024,1.0042,1.0032,1.0041,1.0039,1.0036,1.003,1.0039,1.0042,1.0029,1.0017,1.0016,1.0018,1.0013,1.0014,1.0033,1.0023,0.9954,0.9943,0.9933,0.9927,1.0033,1.0034,1.0095,1.0096,1.0096]}]]